Weather History for Milton, FL

Change the Weather History Date:

Tuesday, November 20, 2012

  Actual Average (KNSE) Record (KNSE)
Temperature  
Mean Temperature 56 °F -  
Max Temperature 69 °F 66 °F 81 °F (1998)
Min Temperature 42 °F 48 °F 35 °F (2006)
Degree Days  
Heating Degree Days 10    
Growing Degree Days 6 (Base 50)    
Moisture  
Dew Point 47 °F    
Average Humidity 78    
Maximum Humidity 93    
Minimum Humidity 54    
Precipitation  
Precipitation 0.00 in - - ()
Sea Level Pressure  
Sea Level Pressure 30.11 in    
Wind  
Wind Speed 3 mph (NNW)    
Max Wind Speed 9 mph    
Max Gust Speed -    
Visibility 10 miles    
Events      
Averages and records for this station are not official NWS values.
T = Trace of Precipitation, MM = Missing Value Source: NWS Daily Summary

Daily Weather History Graph

Daily Weather History Graph

Search for Another Location

Airport:

Trip Planner

Search our weather history database for the weather conditions in past years. The results will help you decide how hot, cold, wet, or windy it might be!

Date:

Astronomy

Nov. 20, 2012 Rise Set
Actual Time 6:19 AM CST 4:48 PM CST
Civil Twilight 5:53 AM CST 5:14 PM CST
Nautical Twilight 5:23 AM CST 5:43 PM CST
Astronomical Twilight 4:55 AM CST 6:12 PM CST
Moon 12:07 PM CST (11/20) No Moon Set
Length of Visible Light 11h 20m
Length of Day
10h 29m
First Quarter, 51% of the Moon is Illuminated
Nov 20
First Quarter
Nov 28
Full
Dec 6
Last Quarter
Dec 13
New
Dec 19
First Quarter

Hourly Weather History & Observations

Time (CST) Temp. Windchill Dew Point Humidity Pressure Visibility Wind Dir Wind Speed Gust Speed Precip Events Conditions
12:56 AM 45.0 °F - 42.1 °F 90% 30.13 in 10.0 mi Calm Calm - N/A   Clear
1:56 AM 42.1 °F - 39.9 °F 92% 30.12 in 10.0 mi Calm Calm - N/A   Clear
2:56 AM 42.1 °F 40.2 °F 39.9 °F 92% 30.12 in 10.0 mi NW 3.5 mph - N/A   Clear
3:56 AM 43.0 °F - 39.9 °F 89% 30.12 in 10.0 mi Calm Calm - N/A   Clear
4:56 AM 42.1 °F - 39.9 °F 92% 30.12 in 10.0 mi Calm Calm - N/A   Clear
5:56 AM 42.1 °F 40.2 °F 39.9 °F 92% 30.14 in 10.0 mi WNW 3.5 mph - N/A   Clear
6:56 AM 45.0 °F - 43.0 °F 93% 30.15 in 10.0 mi Calm Calm - N/A   Clear
7:56 AM 54.0 °F - 48.9 °F 83% 30.16 in 10.0 mi Calm Calm - N/A   Clear
8:56 AM 57.9 °F - 48.9 °F 72% 30.18 in 10.0 mi NW 3.5 mph - N/A   Clear
9:56 AM 64.9 °F - 51.1 °F 61% 30.15 in 10.0 mi NNE 4.6 mph - N/A   Clear
10:56 AM 69.1 °F - 52.0 °F 54% 30.13 in 10.0 mi Variable 5.8 mph - N/A   Clear
11:56 AM 68.0 °F - 51.1 °F 55% 30.10 in 10.0 mi NNE 6.9 mph - N/A   Scattered Clouds
12:56 PM 66.9 °F - 50.0 °F 54% 30.08 in 10.0 mi North 9.2 mph - N/A   Partly Cloudy
1:56 PM 66.9 °F - 51.1 °F 57% 30.07 in 10.0 mi North 8.1 mph - N/A   Scattered Clouds
2:56 PM 66.9 °F - 50.0 °F 54% 30.07 in 10.0 mi North 8.1 mph - N/A   Mostly Cloudy
3:56 PM 64.9 °F - 51.1 °F 61% 30.06 in 10.0 mi North 6.9 mph - N/A   Mostly Cloudy
4:56 PM 62.1 °F - 51.1 °F 67% 30.07 in 10.0 mi NNW 5.8 mph - N/A   Overcast
5:56 PM 57.9 °F - 48.9 °F 72% 30.09 in 10.0 mi NW 4.6 mph - N/A   Unknown
6:56 PM 57.0 °F - 51.1 °F 81% 30.11 in 10.0 mi Calm Calm - N/A   Mostly Cloudy
7:56 PM 53.1 °F - 50.0 °F 89% 30.10 in 10.0 mi WNW 3.5 mph - N/A   Mostly Cloudy
8:56 PM 51.1 °F - 48.0 °F 89% 30.11 in 10.0 mi NW 4.6 mph - N/A   Mostly Cloudy
9:56 PM 52.0 °F - 48.9 °F 89% 30.11 in 10.0 mi NW 3.5 mph - N/A   Mostly Cloudy
10:56 PM 50.0 °F - 48.0 °F 93% 30.11 in 10.0 mi WNW 3.5 mph - N/A   Clear
11:56 PM 46.9 °F - 45.0 °F 93% 30.10 in 10.0 mi NW 3.5 mph - N/A   Clear